Weather in Umtata

South Africa     31°35′31″S   28°47′18″E
temp.,
°C
wind,
m/s
gust,
m/s
humid.,
%
clouds,
%
prec.,
mm/h
press.,
hPa
HPBL,
m
15 april, thu
thu1523:00+15nne11972 0.0 102211
02:00+15n119770 0.0 102012
05:00+14nnw11956 0.0 101911
08:00+17nnw11784 0.0 1019130
11:00+26ssw243747 0.0 1017921
14:00+29ssw4131917 0.0 10133793
17:00+20se477739 0.0 1017516
20:00+17sw497730 0.1 10221047
16 april, fri
fri1623:00+14sw51088100 0.4 10241000
02:00+13sw5118177 0.8 10261001
05:00+10sw5117927 0.1 1028910
08:00+11sw487358 0.2 1031883
11:00+13ssw335495 0.1 10311362
14:00+17sse22402 0.1 10281544
17:00+13ese44591 0.0 1028679
20:00+7ne11955 0.0 103119
17 april, sat
sat1723:00+6nne22955 0.0 103045
02:00+6n229639 0.0 102936
05:00+5n22965 0.0 102828
08:00+9n23760 0.0 1027195
11:00+19nne22350 0.0 1024728
14:00+23e21240 0.0 10201098
17:00+19ene35400 0.0 1020153
20:00+12n22580 0.0 102227
18 april, sun
sun1823:00+11n22593 0.0 102220
02:00+11n225299 0.0 102129
05:00+11n2251100 0.0 102130
08:00+16n24444 0.0 102191
11:00+29wsw26164 0.0 10191624
14:00+31ssw47131 0.0 10163116
17:00+24ese25320 0.0 101773
20:00+17nnw22380 0.0 102014
19 april, mon
mon1923:00+16nnw22360 0.0 102022
02:00+15nnw32350 0.0 102033
05:00+15nnw33360 0.0 102036
08:00+19wnw11355 0.0 102169
11:00+26ssw33211 0.0 1021957
14:00+27s54254 0.0 10201570
17:00+20sse577022 0.0 1023709
20:00+15nw119799 0.0 102617